Weather History for KBVX - October, 2012

Change the Weather History Date:

Wednesday, October 3, 2012

  Actual Average Record
Temperature  
Mean Temperature 67 °F -  
Max Temperature 77 °F 78 °F 95 °F (1969)
Min Temperature 57 °F 51 °F 33 °F (1961)
Cooling Degree Days 2    
Growing Degree Days 17 (Base 50)    
Moisture  
Dew Point 54 °F    
Average Humidity 66    
Maximum Humidity 88    
Minimum Humidity 44    
Precipitation  
Precipitation 0.00 in - - ()
Sea Level Pressure  
Sea Level Pressure 30.02 in    
Wind  
Wind Speed 3 mph (SSW)    
Max Wind Speed 10 mph    
Max Gust Speed -    
Visibility 10 miles    
Events      
Averages and records for this station are not official NWS values.
T = Trace of Precipitation, MM = Missing Value Source: NWS Daily Summary

Daily Weather History Graph

Daily Weather History Graph

Search for Another Location

Airport or City:

Trip Planner

Search our weather history database for the weather conditions in past years. The results will help you decide how hot, cold, wet, or windy it might be!

Date:

Astronomy

Oct. 03, 2012 Rise Set
Actual Time 7:03 AM CDT 6:46 PM CDT
Civil Twilight 6:38 AM CDT 7:12 PM CDT
Nautical Twilight 6:08 AM CDT 7:41 PM CDT
Astronomical Twilight 5:38 AM CDT 8:11 PM CDT
Moon 8:47 PM CDT (10/3) 10:19 AM CDT (10/3)
Length of Visible Light 12h 34m
Length of Day
11h 43m
Waning Gibbous, 88% of the Moon is Illuminated
Oct 3
Waning Gibbous
Oct 8
Last Quarter
Oct 15
New
Oct 21
First Quarter
Oct 29
Full

Hourly Weather History & Observations

Time (CDT) Temp. Dew Point Humidity Pressure Visibility Wind Dir Wind Speed Gust Speed Precip Events Conditions
12:15 AM 60.8 °F 51.8 °F 72% 29.93 in 10.0 mi Calm Calm - N/A   Clear
12:35 AM 57.2 °F 51.8 °F 82% 29.93 in 10.0 mi Calm Calm - N/A   Clear
12:56 AM 59.0 °F 53.6 °F 82% 29.93 in 10.0 mi Calm Calm - N/A   Clear
1:15 AM 59.0 °F 51.8 °F 77% 29.94 in 10.0 mi Calm Calm - N/A   Clear
1:35 AM 57.2 °F 51.8 °F 82% 29.94 in 10.0 mi Calm Calm - N/A   Clear
1:55 AM 57.2 °F 51.8 °F 82% 29.94 in 10.0 mi Calm Calm - N/A   Clear
2:15 AM 57.2 °F 53.6 °F 88% 29.95 in 10.0 mi Calm Calm - N/A   Clear
2:35 AM 59.0 °F 53.6 °F 82% 29.95 in 10.0 mi Calm Calm - N/A   Clear
2:55 AM 57.2 °F 53.6 °F 88% 29.95 in 10.0 mi Calm Calm - N/A   Clear
3:16 AM 59.0 °F 53.6 °F 82% 29.95 in 10.0 mi Calm Calm - N/A   Clear
3:35 AM 60.8 °F 53.6 °F 77% 29.95 in 10.0 mi ESE 3.5 mph - N/A   Clear
3:55 AM 60.8 °F 53.6 °F 77% 29.95 in 10.0 mi South 4.6 mph - N/A   Clear
4:35 AM 60.8 °F 53.6 °F 77% 29.95 in 10.0 mi Calm Calm - N/A   Clear
4:55 AM 57.2 °F 53.6 °F 88% 29.96 in 10.0 mi WNW 3.5 mph - N/A   Clear
5:15 AM 59.0 °F 53.6 °F 82% 29.97 in 10.0 mi Calm Calm - N/A   Clear
5:55 AM 57.2 °F 53.6 °F 88% 29.99 in 10.0 mi SSE 3.5 mph - N/A   Clear
6:15 AM 59.0 °F 53.6 °F 82% 30.00 in 10.0 mi SSE 3.5 mph - N/A   Clear
6:35 AM 59.0 °F 53.6 °F 82% 30.00 in 10.0 mi South 3.5 mph - N/A   Clear
6:55 AM 59.0 °F 53.6 °F 82% 30.00 in 10.0 mi South 4.6 mph - N/A   Mostly Cloudy
7:15 AM 59.0 °F 53.6 °F 82% 30.00 in 9.0 mi Calm Calm - N/A   Scattered Clouds
7:35 AM 60.8 °F 53.6 °F 77% 30.00 in 10.0 mi Calm Calm - N/A   Clear
8:15 AM 60.8 °F 55.4 °F 82% 30.02 in 10.0 mi Calm Calm - N/A   Mostly Cloudy
8:35 AM 60.8 °F 55.4 °F 82% 30.02 in 10.0 mi SW 3.5 mph - N/A   Scattered Clouds
9:15 AM 64.4 °F 55.4 °F 73% 30.03 in 10.0 mi SSE 4.6 mph - N/A   Clear
9:35 AM 66.2 °F 57.2 °F 73% 30.04 in 10.0 mi Calm Calm - N/A   Clear
10:15 AM 69.8 °F 57.2 °F 64% 30.05 in 10.0 mi SW 5.8 mph - N/A   Clear
10:35 AM 71.6 °F 55.4 °F 57% 30.05 in 10.0 mi South 9.2 mph - N/A   Clear
10:55 AM 71.6 °F 57.2 °F 60% 30.05 in 10.0 mi SW 8.1 mph - N/A   Clear
11:15 AM 73.4 °F 55.4 °F 53% 30.05 in 10.0 mi South 4.6 mph - N/A   Clear
11:35 AM 73.4 °F 55.4 °F 53% 30.05 in 10.0 mi SW 9.2 mph - N/A   Clear
11:56 AM 73.4 °F 55.4 °F 53% 30.05 in 10.0 mi SSW 8.1 mph - N/A   Clear
12:15 PM 75.2 °F 55.4 °F 50% 30.05 in 10.0 mi SW 6.9 mph - N/A   Clear
1:35 PM 77.0 °F 53.6 °F 44% 30.03 in 10.0 mi WSW 10.4 mph - N/A   Clear
1:56 PM 77.0 °F 53.6 °F 44% 30.02 in 10.0 mi WSW 9.2 mph - N/A   Clear
2:15 PM 77.0 °F 53.6 °F 44% 30.02 in 10.0 mi WSW 9.2 mph - N/A   Clear
2:35 PM 75.2 °F 53.6 °F 47% 30.02 in 10.0 mi SW 9.2 mph - N/A   Partly Cloudy
2:55 PM 75.2 °F 53.6 °F 47% 30.02 in 10.0 mi SSW 8.1 mph - N/A   Partly Cloudy
3:15 PM 75.2 °F 53.6 °F 47% 30.02 in 10.0 mi SW 6.9 mph - N/A   Clear
3:35 PM 75.2 °F 53.6 °F 47% 30.02 in 10.0 mi SSW 6.9 mph - N/A   Clear
3:55 PM 75.2 °F 51.8 °F 44% 30.02 in 10.0 mi SSW 8.1 mph - N/A   Partly Cloudy
4:35 PM 75.2 °F 55.4 °F 50% 30.01 in 10.0 mi SSW 6.9 mph - N/A   Clear
4:55 PM 75.2 °F 55.4 °F 50% 30.02 in 10.0 mi SSW 8.1 mph - N/A   Clear
5:55 PM 73.4 °F 53.6 °F 50% 30.03 in 10.0 mi SSW 6.9 mph - N/A   Clear
6:15 PM 73.4 °F 53.6 °F 50% 30.03 in 10.0 mi South 4.6 mph - N/A   Clear
6:35 PM 71.6 °F 53.6 °F 53% 30.04 in 10.0 mi South 4.6 mph - N/A   Clear
6:55 PM 71.6 °F 53.6 °F 53% 30.04 in 10.0 mi South 5.8 mph - N/A   Clear
7:15 PM 69.8 °F 55.4 °F 60% 30.04 in 10.0 mi South 4.6 mph - N/A   Clear
7:36 PM 69.8 °F 55.4 °F 60% 30.05 in 10.0 mi South 4.6 mph - N/A   Clear
7:55 PM 69.8 °F 53.6 °F 56% 30.06 in 10.0 mi SSE 4.6 mph - N/A   Clear
8:15 PM 68.0 °F 55.4 °F 64% 30.07 in 10.0 mi South 4.6 mph - N/A   Clear
8:35 PM 68.0 °F 53.6 °F 60% 30.07 in 10.0 mi South 4.6 mph - N/A   Clear
8:55 PM 68.0 °F 55.4 °F 64% 30.08 in 10.0 mi South 4.6 mph - N/A   Clear
9:15 PM 66.2 °F 55.4 °F 68% 30.08 in 10.0 mi South 3.5 mph - N/A   Clear
9:35 PM 66.2 °F 53.6 °F 64% 30.08 in 10.0 mi South 4.6 mph - N/A   Clear
9:55 PM 66.2 °F 53.6 °F 64% 30.09 in 10.0 mi South 4.6 mph - N/A   Clear
9:56 PM 66.2 °F 53.6 °F 64% 30.09 in 10.0 mi South 4.6 mph - N/A   Clear
10:15 PM 66.2 °F 53.6 °F 64% 30.10 in 10.0 mi SSE 4.6 mph - N/A   Clear
10:35 PM 64.4 °F 53.6 °F 68% 30.10 in 10.0 mi Calm Calm - N/A   Clear
10:55 PM 64.4 °F 53.6 °F 68% 30.11 in 10.0 mi Calm Calm - N/A   Clear
11:15 PM 62.6 °F 53.6 °F 72% 30.11 in 10.0 mi SSE 3.5 mph - N/A   Clear
11:35 PM 62.6 °F 53.6 °F 72% 30.11 in 10.0 mi Calm Calm - N/A   Clear